Dewpoint
64 63 63 63 62 63 63 63 64 64 64 65 64 64 64 64 64 64 63 63 63 63 64 64 66 66 66 65 65 65 65 64 64 63 64 63 63 62 63 62 63 63
64 64 64 63 63 63 63 63 64 64 64 65 65 64 64 65 64 64 64 64 65 65 64 64 65 66 66 65 64 64 64 64 63 65 64 63 63 62 62 62 62 63
64 64 63 63 62 62 62 63 64 64 64 65 65 65 64 65 64 65 64 64 64 65 65 64 64 65 66 65 65 65 64 64 63 64 64 63 63 63 62 62 62 63
64 64 63 63 62 62 62 63 64 64 64 64 64 65 65 65 65 64 65 66 64 64 64 65 65 65 66 66 65 65 65 64 64 64 64 63 63 63 62 62 62 62
64 64 63 63 63 62 63 63 63 64 64 64 64 65 65 65 65 65 65 65 65 64 64 64 64 65 66 66 65 65 65 64 65 64 64 63 63 63 62 63 62 63
64 64 64 63 63 62 63 63 63 64 64 64 64 65 65 65 65 65 65 65 65 64 64 63 64 64 65 66 65 65 65 64 64 64 64 63 63 63 64 63 64 64
64 64 64 64 63 63 63 63 63 64 64 64 64 65 65 65 65 65 65 65 65 65 64 63 63 64 65 65 65 65 64 64 64 64 64 63 63 63 64 63 63 63
64 64 64 64 63 63 63 63 63 63 64 64 64 65 65 65 65 66 66 66 65 65 64 64 64 64 65 65 65 65 64 65 64 63 63 62 63 62 63 63 62 61
65 64 64 64 63 63 63 63 63 63 64 63 64 64 66 66 66 66 66 66 65 65 65 64 64 64 65 65 65 65 64 64 64 63 63 62 62 62 62 62 61 61
64 64 64 64 64 63 63 63 64 64 64 64 63 64 65 66 66 66 65 65 65 65 65 64 64 64 65 65 65 65 65 64 64 64 63 63 63 63 62 61 61 61
64 65 64 64 64 64 64 63 63 64 64 64 64 63 64 64 65 66 65 65 65 65 65 64 64 65 65 65 65 65 65 65 65 64 63 63 63 63 64 61 61 61
63 63 63 62 62 63 63 63 63 63 63 64 64 63 63 64 64 65 66 65 65 65 65 65 64 65 65 65 65 65 65 65 65 64 64 63 63 63 63 61 61 61
63 63 63 62 63 62 63 63 62 63 63 63 64 63 63 63 64 64 65 65 65 65 65 65 65 64 65 65 65 65 65 65 64 64 64 64 63 63 62 61 61 61
62 62 63 63 63 62 62 62 62 62 62 63 63 63 63 63 63 64 65 65 65 65 65 65 65 64 64 65 65 65 65 64 64 64 64 64 63 63 62 61 61 61
62 63 63 63 62 62 62 61 61 61 62 63 63 63 63 63 63 63 64 64 65 65 65 65 65 64 64 65 65 65 65 64 64 64 64 64 63 62 62 61 61 61
62 63 63 62 62 61 61 61 61 61 62 62 62 63 63 63 63 63 63 64 64 64 64 64 64 64 65 61 62 65 65 65 64 64 64 64 63 62 62 61 61 61
61 62 62 61 61 61 61 62 62 61 62 62 62 62 63 62 62 62 63 63 63 63 63 63 64 64 59 54 54 58 64 64 64 64 64 64 63 62 62 61 61 61
60 61 61 61 61 61 61 61 62 62 62 62 62 62 62 62 62 62 63 63 64 64 63 63 63 62 54 53 52 53 59 64 64 64 64 63 63 62 62 61 61 61
60 61 61 61 61 61 61 61 61 61 62 61 61 62 62 62 62 62 62 63 63 63 63 63 63 58 52 52 51 51 52 61 64 64 63 63 63 62 62 61 61 61
60 60 61 61 61 61 62 62 61 61 62 62 61 62 62 62 60 61 61 62 63 63 63 64 63 59 52 51 51 50 50 55 63 63 63 63 63 62 62 61 61 61
59 60 60 61 61 62 62 62 62 62 61 61 62 62 62 61 61 60 61 61 61 62 63 63 64 57 51 50 50 49 49 54 63 63 63 63 63 63 62 62 61 61
57 58 59 60 61 61 61 61 61 61 61 62 62 61 62 62 61 61 61 60 61 61 62 61 63 54 50 50 50 49 48 58 63 63 63 63 63 63 63 62 62 61
55 56 57 59 60 60 60 61 61 61 62 62 61 61 61 61 61 61 61 61 61 61 61 61 62 55 49 49 49 48 50 60 63 63 63 63 63 63 63 62 62 61
53 55 57 58 59 59 60 60 61 61 62 62 61 61 61 61 61 61 61 62 61 61 61 61 61 59 49 48 49 47 54 61 62 63 63 63 63 63 63 62 62 64
53 55 57 58 59 59 60 60 60 61 61 62 62 62 61 62 61 61 62 62 62 62 62 62 62 60 50 46 47 47 53 61 62 63 63 62 62 62 62 62 62 64
52 54 56 57 58 59 59 60 61 60 60 61 61 62 62 62 61 61 61 62 62 62 62 62 62 62 56 47 46 47 49 60 62 62 62 62 62 62 62 61 62 62